Location: *
(37.5724°S, 58.0067°E)
Time: 10:29:45
(UTC+00:00)

H-2A ROCKET BODY - Pass Details

Date: 24 January 2021
Orbit: 216 x 15031 km, 28.6° (Epoch: 07 March)

Event Time Altitude Azimuth Distance (km) Brightness Sun altitude
Rises 14:36:18 0° 23° (NNE) 9,424 7.2 8.4°
Reaches altitude 10° 14:53:18 10° 46° (NE) 11,917 7.5 5.2°
Maximum altitude 15:52:40 17° 81° (E) 17,964 8.4 -5.5°
Drops below altitude 10° 17:00:41 10° 101° (ESE) 18,295 8.6 -16.5°
Sets 17:29:03 0° 110° (ESE) 16,729 8.6 -20.6°
